Regional Weather Roundup
Issued by NWS Sioux Falls, SD

Home | Current Version | Previous Version | Graphics & Text | Print | Product List | Glossary On
Versions: 1 2 3 4 5 6 7 8 9 10 11 12 13 14 15 16 17 18 19 20 21 22 23 24 25 26 27 28 29 30 31 32 33 34 35 36 37 38 39 40 41 42 43 44 45 46 47 48 49 50
000
ASUS43 KFSD 260510
RWRFSD

WEATHER ROUNDUP FOR SE SOUTH DAKOTA/SW MINNESOTA/NW IOWA
NATIONAL WEATHER SERVICE SIOUX FALLS SD
1200 AM CDT SAT JUL 26 2014

NOTE: "FAIR" INDICATES FEW OR NO CLOUDS BELOW 12,000 FEET WITH NO
SIGNIFICANT WEATHER AND OR OBSTRUCTIONS TO VISIBILITY.


SDZ038>040-050-052>070-260600-
SOUTHEAST SOUTH DAKOTA

CITY           SKY/WX    TMP DP  RH WIND       PRES   REMARKS
CHAMBERLAIN    PTCLDY    71  66  85 E6        29.87R
HURON          PTCLDY    64  62  93 NW5       29.86R
MADISON        FAIR      64  64 100 CALM      29.85F
MITCHELL       PTCLDY    71  67  87 NW5       29.85R
SIOUX FALLS    MOCLDY    72  69  90 CALM      29.84S
WINNER         FAIR      74  67  78 E9        29.86S
YANKTON        CLEAR     73  70  88 N8        29.83R
$$

MNZ071-072-080-081-089-090-097-098-260600-
SOUTHWEST MINNESOTA

CITY           SKY/WX    TMP DP  RH WIND       PRES   REMARKS
FAIRMONT       CLOUDY    72  63  73 S5        29.83S
JACKSON        PTCLDY    72  68  88 S5        29.85S
LUVERNE        CLEAR     73  70  88 CALM      29.85S FOG
MARSHALL       CLEAR     72  66  83 NW7       29.83S
MONTEVIDEO     CLEAR     70  66  88 CALM      29.84R
PIPESTONE      CLEAR     73  70  88 NE3       29.85F
REDWOOD FALLS  PTCLDY    75  72  90 NW6       29.81R
TRACY          MOCLDY    73  71  93 NW3       29.84S
WINDOM         CLOUDY    73  70  88 CALM      29.84F
WORTHINGTON    CLOUDY    72  70  94 NW5       29.86R
$$

IAZ001>003-012>014-020>022-031-032-NEZ013-014-SDZ071-260600-
NORTHWEST IOWA

CITY           SKY/WX    TMP DP  RH WIND       PRES   REMARKS
CHEROKEE       CLOUDY    74  73  94 CALM      29.83S
DENISON        CLOUDY    73  73 100 NE5       29.81R
ESTHERVILLE    CLOUDY    71  69  93 S5        29.84R
LE MARS        PTCLDY    73  72  94 CALM      29.83S
ORANGE CITY    PTCLDY    75  70  83 CALM      29.84S
SHELDON        PTCLDY    70  70 100 SE3       29.83S FOG
SIOUX CITY     PTCLDY    77  72  84 E5        29.82R
SPENCER        CLOUDY    72  69  90 SE3       29.84R
STORM LAKE     CLOUDY    73  73 100 N5        29.86R
$$

ABBREVIATIONS USED IN REMARKS
   TC - TEMPERATURE IN CELSIUS
  WCI - WIND CHILL INDEX
   HX - HEAT INDEX
  VSB - VISIBILITY




USA.gov is the U.S. government's official web portal to all federal, state and local government web resources and services.